Hourly Data Report for June 30, 2017

FISHER BRANCH (AUT)
MANITOBA

51°05'00.100" N
97°33'16.200" W
253.00 m
50309J6
71442
WSZ

Download Data

Hourly Data (June 2017)
Hourly Data Report for June 30, 2017
TIME
LST
Temp Definition
°C
Dew Point Definition
°C
Rel Hum Definition
%
Precip. Amount Definition
mm

Wind Dir Definition
10's deg

Wind Spd Definition
km/h
Visibility Definition
km
Stn Press Definition
kPa
Hmdx Definition


Wind Chill Definition


Weather Definition


00:00 15.1 13.4 90 0.0 29 9   98.19     LegendNANA
01:00 14.6 13.6 94 0.2 28 12   98.19     LegendNANA
02:00 13.5 12.2 92 0.0 30 17   98.17     LegendNANA
03:00 12.8 11.4 91 0.0 31 13   98.15     LegendNANA
04:00 12.4 11.1 92 0.0 32 11   98.16     LegendNANA
05:00 12.1 11.0 93 0.0 32 6   98.18     LegendNANA
06:00 12.9 11.5 91 0.0 32 4   98.22     LegendNANA
07:00 14.5 11.3 81 0.0 32 12   98.23     LegendNANA
08:00 16.0 12.2 78 0.0 30 14   98.23     LegendNANA
09:00 16.7 11.0 69 0.0 30 11   98.23     LegendNANA
10:00 17.3 10.7 65 0.0 30 8   98.22     LegendNANA
11:00 17.5 12.6 73 0.0 28 9   98.22     LegendNANA
12:00 17.5 11.1 66 0.0 29 17   98.21     LegendNANA
13:00 18.4 10.8 61 0.0 27 14   98.21     LegendNANA
14:00 17.4 10.3 63 0.0 30 22   98.20     LegendNANA
15:00 17.8 11.5 66 0.0 32 14   98.18     LegendNANA
16:00 17.8 10.6 63 0.0 30 13   98.17     LegendNANA
17:00 19.0 11.2 61 0.0 32 12   98.15     LegendNANA
18:00 18.4 9.5 56 0.0 29 16   98.18     LegendNANA
19:00 16.9 9.5 61 0.0 31 7   98.19     LegendNANA
20:00 15.4 9.6 69 0.0 32 9   98.18     LegendNANA
21:00 11.8 9.4 85 0.0 31 6   98.18     LegendNANA
22:00 10.7 9.0 89 0.0 27 4   98.16     LegendNANA
23:00 8.9 7.8 93 0.0 32 4   98.13     LegendNANA

Notes on Data Quality.

Legend

  • E = Estimated
  • M = Missing
  • NA = Not Available*
  • [empty] = Indicates an unobserved value
Date modified: